Location: Peach Mountain Observatory
(42.3967°N, 83.9367°W)
Time: 17:27:12
(UTC-04:00)

deb Explorer IX - Pass Details

Date: 28 January 2020
Orbit: 548 x 1100 km, 38.8° (Epoch: 09 April)

Event Time Altitude Azimuth Distance (km) Brightness Sun altitude
Rises 23:57:09 0° 268° (W) 3,802 - -63.6°
Reaches altitude 10° 23:59:50 10° 265° (W) 2,893 - -63.8°
Maximum altitude 00:06:56 66° 186° (S) 1,192 - -64.4°
Drops below altitude 10° 00:14:07 10° 106° (ESE) 2,916 - -64.9°
Sets 00:16:49 0° 103° (ESE) 3,835 - -65.0°
